SKYNET 5B

Last updated on Aug. 3, 2020, 5:32 a.m. UTC

1 32294U 07056B   20215.71658594  .00000124  00000-0  00000-0 0  9990
2 32294   0.0701  16.6623 0003638 126.7473  91.4057  1.00272667 46696
UTC
Height (km)
Latitude
Longitude
Inclination
Orbital Period
UTC large
Height (km)
Speed (km/s)
/
Latitude / Longitude
Inclination (degrees)
Orbital Period (minutes)
Azimuth
Elevation
Range (km)
Doppler Factor
iOS Compass Heading
iOS Angle

Next 30 passes for location: Hong Kong

Rise time Rise Azimuth (degrees) Set time Set Azimuth (degrees) Duration Max altitude (degrees)

No matching passes for this satellites